Radiation Dose at Monitoring Post of Fukushima Daini Nuclear Power Station
Date,Time,MP-1(microSv/h),MP-2(microSv/h),MP-3(microSv/h),MP-4(microSv/h),MP-5(microSv/h),MP-6(microSv/h),MP-7(microSv/h),Wind Direction,Wind Velocity(m/s),Rain
2014/08/31,00:00,0.633,0.435,0.668,0.610,0.607,0.273,0.234,north-northwest,5.6,No
2014/08/31,00:10,0.635,0.435,0.669,0.611,0.606,0.272,0.233,north-northwest,6.3,No
2014/08/31,00:20,0.635,0.434,0.670,0.611,0.608,0.271,0.234,north-northwest,5.8,No
2014/08/31,00:30,0.632,0.435,0.671,0.609,0.608,0.274,0.233,north-northwest,5.8,No
2014/08/31,00:40,0.634,0.435,0.670,0.607,0.606,0.271,0.235,north-northwest,6.3,No
2014/08/31,00:50,0.632,0.436,0.670,0.607,0.605,0.272,0.232,north-northwest,6.4,No
2014/08/31,01:00,0.632,0.434,0.670,0.606,0.606,0.271,0.234,north-northwest,6.4,No
2014/08/31,01:10,0.634,0.435,0.670,0.607,0.606,0.272,0.233,north-northwest,6.9,No
2014/08/31,01:20,0.633,0.435,0.669,0.608,0.607,0.273,0.234,north,6.5,No
2014/08/31,01:30,0.634,0.436,0.670,0.607,0.607,0.270,0.233,north-northwest,5.9,No
2014/08/31,01:40,0.634,0.435,0.668,0.608,0.607,0.272,0.234,north-northwest,5.9,No
2014/08/31,01:50,0.636,0.435,0.668,0.608,0.609,0.272,0.233,north-northwest,5.6,No
2014/08/31,02:00,0.637,0.436,0.671,0.609,0.608,0.271,0.233,north-northwest,5.9,No
2014/08/31,02:10,0.635,0.435,0.668,0.609,0.606,0.271,0.232,north,5.4,No
2014/08/31,02:20,0.637,0.435,0.670,0.609,0.609,0.273,0.233,north,5.9,No
2014/08/31,02:30,0.635,0.433,0.670,0.609,0.607,0.271,0.233,north,6.2,No
2014/08/31,02:40,0.634,0.434,0.669,0.610,0.609,0.272,0.234,north,5.6,No
2014/08/31,02:50,0.635,0.435,0.670,0.608,0.607,0.273,0.233,north,5.3,No
2014/08/31,03:00,0.633,0.436,0.669,0.610,0.608,0.271,0.234,north-northwest,5.6,No
2014/08/31,03:10,0.634,0.436,0.670,0.609,0.609,0.271,0.233,north,5.8,No
2014/08/31,03:20,0.634,0.435,0.670,0.609,0.608,0.271,0.234,north,5.8,No
2014/08/31,03:30,0.633,0.436,0.672,0.609,0.606,0.272,0.233,north,5.6,No
2014/08/31,03:40,0.635,0.436,0.671,0.609,0.605,0.273,0.234,north,5.9,No
2014/08/31,03:50,0.633,0.435,0.669,0.608,0.607,0.271,0.233,north,5.3,No
2014/08/31,04:00,0.633,0.435,0.671,0.611,0.607,0.272,0.231,north,5.3,No
2014/08/31,04:10,0.634,0.436,0.668,0.610,0.610,0.271,0.234,north,5.3,No
2014/08/31,04:20,0.635,0.435,0.672,0.608,0.606,0.272,0.232,north,5.7,No
2014/08/31,04:30,0.633,0.436,0.672,0.610,0.607,0.270,0.234,north,5.7,No
2014/08/31,04:40,0.633,0.436,0.671,0.610,0.607,0.272,0.234,north,5.2,No
2014/08/31,04:50,0.634,0.438,0.672,0.609,0.606,0.272,0.235,north-northeast,5.4,No
2014/08/31,05:00,0.633,0.435,0.671,0.609,0.607,0.270,0.234,north-northeast,4.0,No
2014/08/31,05:10,0.634,0.435,0.671,0.611,0.607,0.273,0.232,north,4.0,No
2014/08/31,05:20,0.635,0.435,0.671,0.610,0.608,0.270,0.234,north,4.6,No
2014/08/31,05:30,0.633,0.436,0.669,0.609,0.607,0.272,0.231,north,4.9,No
2014/08/31,05:40,0.634,0.435,0.671,0.608,0.606,0.271,0.234,north,4.7,No
2014/08/31,05:50,0.633,0.435,0.672,0.610,0.605,0.271,0.231,north,4.9,No
2014/08/31,06:00,0.634,0.436,0.671,0.608,0.606,0.270,0.234,north,4.4,No
2014/08/31,06:10,0.634,0.435,0.672,0.609,0.608,0.270,0.234,north,4.0,No
2014/08/31,06:20,0.634,0.436,0.672,0.610,0.606,0.271,0.233,north-northwest,4.0,No
2014/08/31,06:30,0.634,0.437,0.672,0.610,0.609,0.270,0.234,north-northwest,4.6,No
2014/08/31,06:40,0.633,0.437,0.673,0.610,0.607,0.272,0.233,north,4.7,No
2014/08/31,06:50,0.634,0.436,0.670,0.611,0.609,0.272,0.231,north,4.8,No
2014/08/31,07:00,0.637,0.436,0.673,0.609,0.607,0.271,0.234,north,4.7,No
2014/08/31,07:10,0.638,0.438,0.670,0.609,0.610,0.270,0.233,north,4.4,No
2014/08/31,07:20,0.639,0.437,0.672,0.610,0.608,0.270,0.231,north,3.7,No
2014/08/31,07:30,0.637,0.438,0.671,0.610,0.608,0.271,0.234,north,3.6,No
2014/08/31,07:40,0.635,0.437,0.670,0.610,0.608,0.271,0.233,north,4.0,No
2014/08/31,07:50,0.637,0.438,0.673,0.610,0.610,0.271,0.232,north,4.3,No
2014/08/31,08:00,0.636,0.437,0.672,0.610,0.610,0.272,0.231,north-northeast,5.0,No
2014/08/31,08:10,0.637,0.438,0.672,0.612,0.611,0.271,0.231,north-northeast,6.1,No
2014/08/31,08:20,0.636,0.439,0.673,0.615,0.610,0.270,0.231,north,6.0,No
2014/08/31,08:30,0.635,0.439,0.673,0.616,0.612,0.273,0.232,north,4.7,No
2014/08/31,08:40,0.640,0.440,0.672,0.618,0.610,0.272,0.232,north-northeast,6.1,No
2014/08/31,08:50,0.640,0.441,0.675,0.618,0.612,0.272,0.231,north-northeast,7.1,No
2014/08/31,09:00,0.642,0.442,0.673,0.621,0.614,0.270,0.232,north-northeast,7.6,No
2014/08/31,09:10,0.643,0.443,0.673,0.625,0.611,0.271,0.234,north-northeast,7.6,No
2014/08/31,09:20,0.643,0.443,0.676,0.625,0.613,0.273,0.234,north-northeast,6.9,No
2014/08/31,09:30,0.645,0.443,0.674,0.626,0.614,0.272,0.233,north-northeast,5.6,No
2014/08/31,09:40,0.646,0.444,0.675,0.627,0.616,0.271,0.234,north-northeast,5.7,No
2014/08/31,09:50,0.647,0.442,0.675,0.629,0.615,0.273,0.234,north-northeast,6.1,No
2014/08/31,10:00,0.647,0.443,0.675,0.629,0.615,0.272,0.233,north-northeast,5.2,No
2014/08/31,10:10,0.649,0.445,0.677,0.629,0.614,0.273,0.233,northeast,5.6,No
2014/08/31,10:20,0.649,0.443,0.677,0.627,0.613,0.272,0.233,north-northeast,5.2,No
2014/08/31,10:30,0.648,0.444,0.674,0.628,0.613,0.274,0.234,north-northeast,5.0,No
2014/08/31,10:40,0.648,0.444,0.677,0.630,0.613,0.272,0.234,northeast,5.0,No
2014/08/31,10:50,0.650,0.443,0.678,0.628,0.613,0.273,0.234,northeast,5.0,No
2014/08/31,11:00,0.650,0.442,0.677,0.626,0.617,0.273,0.235,north-northeast,4.7,No
2014/08/31,11:10,0.648,0.443,0.678,0.629,0.614,0.274,0.232,north-northeast,5.5,No
2014/08/31,11:20,0.648,0.441,0.679,0.627,0.613,0.272,0.235,north-northeast,5.2,No
2014/08/31,11:30,0.647,0.443,0.679,0.627,0.615,0.272,0.234,north-northeast,4.8,No
2014/08/31,11:40,0.645,0.445,0.680,0.627,0.612,0.273,0.235,northeast,4.4,No
2014/08/31,11:50,0.646,0.445,0.682,0.628,0.613,0.274,0.235,northeast,5.1,No
2014/08/31,12:00,0.647,0.444,0.679,0.630,0.615,0.274,0.234,north-northeast,4.4,No
2014/08/31,12:10,0.647,0.445,0.678,0.629,0.614,0.273,0.235,northeast,4.2,No
2014/08/31,12:20,0.646,0.444,0.677,0.629,0.613,0.273,0.234,northeast,4.3,No
2014/08/31,12:30,0.646,0.443,0.678,0.625,0.612,0.276,0.236,north-northeast,4.7,No
2014/08/31,12:40,0.648,0.444,0.679,0.625,0.612,0.274,0.237,northeast,3.5,No
2014/08/31,12:50,0.646,0.443,0.678,0.627,0.613,0.275,0.236,northeast,4.1,No
2014/08/31,13:00,0.647,0.443,0.676,0.627,0.612,0.274,0.235,northeast,4.9,No
2014/08/31,13:10,0.646,0.443,0.677,0.626,0.613,0.274,0.234,north-northeast,4.8,No
2014/08/31,13:20,0.646,0.443,0.678,0.628,0.612,0.273,0.235,north-northeast,4.3,No
2014/08/31,13:30,0.646,0.444,0.679,0.628,0.613,0.273,0.234,north-northeast,4.3,No
2014/08/31,13:40,0.646,0.443,0.679,0.627,0.613,0.274,0.235,northeast,4.2,No
2014/08/31,13:50,0.647,0.444,0.678,0.629,0.613,0.275,0.234,north-northeast,3.3,No
2014/08/31,14:00,0.647,0.444,0.679,0.628,0.613,0.275,0.235,northeast,4.1,No
2014/08/31,14:10,0.648,0.445,0.682,0.628,0.612,0.274,0.235,northeast,3.9,No
2014/08/31,14:20,0.647,0.445,0.681,0.633,0.614,0.275,0.235,northeast,3.4,No
2014/08/31,14:30,0.645,0.446,0.680,0.632,0.615,0.275,0.236,north-northeast,4.2,No
2014/08/31,14:40,0.646,0.445,0.680,0.630,0.613,0.276,0.235,northeast,3.7,No
2014/08/31,14:50,0.646,0.445,0.677,0.631,0.613,0.275,0.234,northeast,3.3,No
2014/08/31,15:00,0.646,0.445,0.677,0.629,0.614,0.274,0.234,northeast,2.3,No
2014/08/31,15:10,0.648,0.445,0.678,0.630,0.614,0.275,0.236,northeast,3.0,No
2014/08/31,15:20,0.648,0.445,0.678,0.629,0.614,0.274,0.238,northeast,3.3,No
2014/08/31,15:30,0.648,0.445,0.678,0.626,0.614,0.274,0.236,northeast,2.8,No
2014/08/31,15:40,0.649,0.445,0.677,0.628,0.612,0.275,0.235,northeast,2.9,No
2014/08/31,15:50,0.648,0.444,0.680,0.627,0.615,0.274,0.238,northeast,2.8,No
2014/08/31,16:00,0.647,0.442,0.676,0.624,0.613,0.274,0.237,northeast,2.2,No
2014/08/31,16:10,0.647,0.443,0.678,0.624,0.612,0.274,0.237,northeast,2.9,No
2014/08/31,16:20,0.648,0.444,0.678,0.626,0.612,0.275,0.238,northeast,2.0,No
2014/08/31,16:30,0.647,0.444,0.679,0.624,0.612,0.274,0.237,east-northeast,1.2,No
2014/08/31,16:40,0.647,0.443,0.679,0.626,0.609,0.273,0.236,northeast,2.6,No
2014/08/31,16:50,0.647,0.444,0.679,0.626,0.610,0.273,0.236,northeast,1.9,No
2014/08/31,17:00,0.649,0.444,0.678,0.626,0.610,0.275,0.236,north-northeast,1.5,No
2014/08/31,17:10,0.647,0.443,0.676,0.627,0.609,0.273,0.236,north-northeast,1.5,No
2014/08/31,17:20,0.644,0.443,0.679,0.628,0.611,0.273,0.237,northeast,2.1,No
2014/08/31,17:30,0.645,0.442,0.678,0.627,0.612,0.276,0.239,north-northeast,2.2,No
2014/08/31,17:40,0.645,0.443,0.678,0.622,0.613,0.274,0.236,northeast,1.5,No
2014/08/31,17:50,0.645,0.443,0.678,0.623,0.611,0.274,0.237,north-northeast,1.4,No
2014/08/31,18:00,0.646,0.443,0.677,0.625,0.612,0.275,0.237,northeast,1.4,No
2014/08/31,18:10,0.645,0.442,0.678,0.625,0.610,0.273,0.234,north-northeast,1.5,No
2014/08/31,18:20,0.647,0.443,0.677,0.624,0.610,0.273,0.238,north,1.4,No
2014/08/31,18:30,0.647,0.442,0.678,0.622,0.612,0.275,0.236,north,1.4,No
2014/08/31,18:40,0.644,0.442,0.678,0.621,0.612,0.273,0.236,north,1.2,No
2014/08/31,18:50,0.644,0.443,0.678,0.621,0.611,0.275,0.238,north-northwest,1.1,No
2014/08/31,19:00,0.645,0.442,0.680,0.623,0.613,0.275,0.235,north,1.7,No
2014/08/31,19:10,0.645,0.442,0.679,0.625,0.610,0.273,0.237,north,2.2,No
2014/08/31,19:20,0.644,0.444,0.679,0.624,0.612,0.275,0.237,north,1.7,No
2014/08/31,19:30,0.641,0.442,0.679,0.622,0.610,0.273,0.237,north-northwest,1.4,No
2014/08/31,19:40,0.643,0.441,0.677,0.618,0.613,0.274,0.237,north,1.8,No
2014/08/31,19:50,0.642,0.442,0.677,0.617,0.611,0.275,0.236,north-northwest,1.6,No
2014/08/31,20:00,0.642,0.442,0.679,0.620,0.612,0.272,0.237,north,1.1,No
2014/08/31,20:10,0.642,0.443,0.677,0.620,0.612,0.276,0.237,north-northwest,1.3,No
2014/08/31,20:20,0.644,0.444,0.677,0.620,0.612,0.273,0.236,north-northwest,1.6,No
2014/08/31,20:30,0.642,0.440,0.678,0.619,0.610,0.274,0.236,north-northwest,1.7,No
2014/08/31,20:40,0.641,0.441,0.676,0.618,0.610,0.275,0.238,northwest,2.6,No
2014/08/31,20:50,0.642,0.439,0.675,0.618,0.613,0.273,0.236,north-northwest,2.5,No
2014/08/31,21:00,0.641,0.441,0.679,0.618,0.610,0.275,0.238,northwest,2.3,No
2014/08/31,21:10,0.643,0.441,0.678,0.619,0.612,0.276,0.237,north-northwest,2.5,No
2014/08/31,21:20,0.643,0.443,0.679,0.619,0.611,0.273,0.235,north-northwest,2.4,No
2014/08/31,21:30,0.643,0.442,0.678,0.619,0.612,0.274,0.237,north-northwest,3.0,No
2014/08/31,21:40,0.643,0.440,0.678,0.620,0.612,0.274,0.237,north-northwest,3.1,No
2014/08/31,21:50,0.641,0.440,0.679,0.619,0.611,0.274,0.238,north-northwest,2.2,No
2014/08/31,22:00,0.640,0.442,0.678,0.617,0.611,0.275,0.238,north-northwest,2.1,No
2014/08/31,22:10,0.641,0.441,0.677,0.616,0.610,0.274,0.236,north-northwest,2.3,No
2014/08/31,22:20,0.638,0.441,0.677,0.617,0.611,0.274,0.238,north-northwest,2.2,No
2014/08/31,22:30,0.642,0.441,0.678,0.616,0.612,0.275,0.236,north,1.7,No
2014/08/31,22:40,0.639,0.442,0.676,0.616,0.611,0.274,0.237,north,1.8,No
2014/08/31,22:50,0.642,0.440,0.678,0.619,0.613,0.275,0.238,north,1.5,No
2014/08/31,23:00,0.640,0.441,0.679,0.618,0.613,0.274,0.236,north,1.2,No
2014/08/31,23:10,0.641,0.442,0.679,0.617,0.611,0.275,0.238,north-northwest,0.6,No
2014/08/31,23:20,0.640,0.441,0.678,0.618,0.610,0.274,0.236,north-northeast,1.0,No
2014/08/31,23:30,0.642,0.441,0.678,0.618,0.609,0.275,0.238,north,1.2,No
2014/08/31,23:40,0.641,0.440,0.680,0.619,0.610,0.275,0.237,north,1.1,No
2014/08/31,23:50,0.639,0.441,0.677,0.616,0.610,0.273,0.237,north,1.4,No
